Seaspan Chiwan — VRBH3 — position and weather

sailwx.info

Track history (hours):
 
Tides and Currents Weather Stations Pressure Air Temp Water Temp Dewpoint Dewpoint Depression Visibility Wind Speed Wind Dir Waves Ship Positions

Seaspan Chiwan

Last reported at 2014-Aug-30 00:00 UTC. Time now 2014-Aug-30 06:32 UTC.
Position N 33°48' W 028°18'.

Length 260 m; draft 10.9 m.

Type: Cargo ship. MMSI: 477014500.

Wind from 170 at 6 knots

Waves 0.5 meters (2 feet), 5 second period

Barometer 1028.0 mb
Air temperature 27.0 ° C
Visibility: greater than 10.8 NM
Dewpoint 22.6 ° C
Water temperature 22.0 ° C

Date/timePositionNaut miles runAvg speedWind from/ knotsBaromVisibWave heightAir tempDewpointWater temp
2014-Aug-30 00:00N 33°48' W 028°18'37315.6 170 / 61028.010.8 0.527.022.622.0
2014-Aug-29 00:00N 35°00' W 020°54'9415.7 090 / 81027.010.8 0.526.019.921.0
2014-Aug-28 18:00N 35°12' W 019°00'18617.0 100 / 41028.010.8 1.029.021.625.0
2014-Aug-28 07:00N 35°24' W 015°12'11316.1 040 / 101023.010.8 2.022.018.920.0
2014-Aug-28 00:00N 35°30' W 012°54'17815.5 020 / 141023.010.8 1.025.022.020.0
2014-Aug-27 12:33N 35°49' W 009°17'36815.2
2014-Aug-26 12:18N 36°44' W 001°45'1315.6
2014-Aug-26 11:27N 36°53' W 001°33'1516.2
2014-Aug-26 10:33N 37°02' W 001°19'3216.1
2014-Aug-26 08:32N 37°24' W 000°48'1616.1
2014-Aug-26 07:33N 37°34' W 000°33'1615.7
2014-Aug-26 06:32N 37°48' W 000°22'1615.9
2014-Aug-26 05:33N 38°01' W 000°12'1615.8
2014-Aug-26 04:33N 38°14' W 000°01'1615.7
2014-Aug-26 03:33N 38°27' E 000°10'1715.4
2014-Aug-26 02:26N 38°42' E 000°21'5514.1
2014-Aug-25 22:34N 39°27' W 000°19'0 0.0
2014-Aug-25 21:33N 39°27' W 000°19'0 0.0
2014-Aug-25 20:33N 39°27' W 000°19'0 0.0
2014-Aug-25 19:33N 39°27' W 000°19'0 0.0
2014-Aug-25 18:33N 39°27' W 000°19'0 0.0
2014-Aug-25 17:33N 39°27' W 000°19'0 0.0
2014-Aug-25 16:33N 39°27' W 000°19'0 0.0
2014-Aug-25 15:33N 39°27' W 000°19'0 0.0
2014-Aug-25 14:33N 39°27' W 000°19'0 0.0
2014-Aug-25 13:33N 39°27' W 000°19'0 0.0
2014-Aug-25 12:33N 39°27' W 000°19'0 0.0
2014-Aug-25 11:33N 39°27' W 000°19'0 0.0
2014-Aug-25 10:33N 39°27' W 000°19'0 0.0
2014-Aug-25 09:33N 39°27' W 000°19'0 0.0
2014-Aug-25 08:33N 39°27' W 000°19'5 5.3
2014-Aug-25 07:33N 39°25' W 000°12'7111.8
2014-Aug-25 01:33N 39°53' E 001°12'1212.4
2014-Aug-25 00:33N 40°04' E 001°19'1212.4
2014-Aug-24 23:33N 40°15' E 001°27'1212.4
2014-Aug-24 22:33N 40°25' E 001°35'1212.4
2014-Aug-24 21:33N 40°36' E 001°42'1312.8
2014-Aug-24 20:33N 40°48' E 001°50'1312.8
2014-Aug-24 19:33N 40°59' E 001°58'1312.6
2014-Aug-24 18:33N 41°11' E 002°06'10 0.9
2014-Aug-24 08:06N 41°16' E 002°16'712.3
2014-Aug-24 07:32N 41°17' E 002°25'1211.8
2014-Aug-24 06:33N 41°22' E 002°39'1412.6
2014-Aug-24 05:25N 41°30' E 002°55'4 4.7
2014-Aug-24 04:29N 41°28' E 002°50'1311.7
2014-Aug-24 03:22N 41°36' E 003°03'2211.9
2014-Aug-24 01:28N 41°50' E 003°28'1212.6
2014-Aug-24 00:30N 41°58' E 003°39'1313.4
2014-Aug-23 23:33N 42°09' E 003°49'1313.5
2014-Aug-23 22:33N 42°19' E 004°01'1413.1
2014-Aug-23 21:29N 42°30' E 004°13'2612.9
2014-Aug-23 19:29N 42°49' E 004°36'37 2.3
2014-Aug-23 03:31N 43°25' E 004°51'0 0.0
2014-Aug-23 02:31N 43°25' E 004°51'0 0.0
2014-Aug-23 01:31N 43°25' E 004°51'4 4.6
2014-Aug-23 00:33N 43°22' E 004°56'1 0.6
2014-Aug-22 23:32N 43°22' E 004°56'0 0.0
2014-Aug-22 22:29N 43°22' E 004°56'0 0.0
2014-Aug-22 21:32N 43°22' E 004°56'0 0.0
2014-Aug-22 20:32N 43°22' E 004°56'0 0.0
2014-Aug-22 19:29N 43°22' E 004°56'0 0.0
2014-Aug-22 18:32N 43°22' E 004°56'0 0.0
2014-Aug-22 17:32N 43°22' E 004°56'0 0.0
2014-Aug-22 16:32N 43°22' E 004°56'0 0.0
2014-Aug-22 15:33N 43°22' E 004°56'0 0.0
2014-Aug-22 14:33N 43°22' E 004°56'0 0.0
2014-Aug-22 13:33N 43°22' E 004°56'0 0.0
2014-Aug-22 12:33N 43°22' E 004°56'0 0.0
2014-Aug-22 11:33N 43°22' E 004°56'0 0.0
2014-Aug-22 10:33N 43°22' E 004°56'0 0.0
2014-Aug-22 09:33N 43°22' E 004°56'0 0.0
2014-Aug-22 08:33N 43°22' E 004°56'0 0.0
2014-Aug-22 07:33N 43°22' E 004°56'0 0.1
2014-Aug-22 06:33N 43°22' E 004°56'9 9.3
2014-Aug-22 05:33N 43°13' E 005°02'1311.9
2014-Aug-22 04:30N 43°04' E 005°14'1212.5
2014-Aug-22 03:33N 42°59' E 005°28'1212.5
2014-Aug-22 02:33N 42°55' E 005°44'1212.4
2014-Aug-22 01:33N 42°50' E 006°00'1312.6
2014-Aug-22 00:33N 42°50' E 006°17'1312.5
2014-Aug-21 23:33N 42°52' E 006°34'1313.0
2014-Aug-21 22:33N 42°60' E 006°48'1312.8
2014-Aug-21 21:33N 43°07' E 007°03'1212.2
2014-Aug-21 20:33N 43°14' E 007°16'2612.5
2014-Aug-21 18:27N 43°30' E 007°46'4912.4
2014-Aug-21 14:30N 44°05' E 008°32'1313.5
2014-Aug-21 13:33N 44°16' E 008°41'10 9.8
2014-Aug-21 12:33N 44°25' E 008°47'0 0.0
2014-Aug-21 05:18N 44°25' E 008°47'0 0.0
2014-Aug-20 20:18N 44°25' E 008°47'0 0.0
2014-Aug-20 16:21N 44°25' E 008°47'0 0.0
2014-Aug-20 15:27N 44°25' E 008°47'1 0.8
2014-Aug-20 14:32N 44°25' E 008°46'6 6.5
2014-Aug-20 13:33N 44°19' E 008°46'1413.7
2014-Aug-20 12:33N 44°09' E 008°59'1514.7
2014-Aug-20 11:34N 43°58' E 009°12'1514.9
2014-Aug-20 10:33N 43°47' E 009°26'1414.4
2014-Aug-20 09:34N 43°39' E 009°43'1413.9
2014-Aug-20 08:33N 43°31' E 009°59'1313.2
2014-Aug-20 07:33N 43°32' E 010°17'2 2.2
2014-Aug-20 06:32N 43°35' E 010°18'0 0.0
2014-Aug-20 05:32N 43°35' E 010°18'0 0.0
2014-Aug-20 04:32N 43°35' E 010°18'0 0.0
2014-Aug-20 03:32N 43°35' E 010°18'0 0.0
2014-Aug-20 02:32N 43°35' E 010°18'0 0.0
2014-Aug-20 01:32N 43°35' E 010°18'0 0.0
2014-Aug-20 00:32N 43°35' E 010°18'  
Track history (hours):
 
Tides and Currents Weather Stations Pressure Air Temp Water Temp Dewpoint Dewpoint Depression Visibility Wind Speed Wind Dir Waves Ship Positions

Seaspan Chiwan

Last reported at 2014-Aug-30 00:00 UTC. Time now 2014-Aug-30 06:32 UTC.
Position N 33°48' W 028°18'.

Length 260 m; draft 10.9 m.

Type: Cargo ship. MMSI: 477014500.

Wind from 170 at 6 knots

Waves 0.5 meters (2 feet), 5 second period

Barometer 1028.0 mb
Air temperature 27.0 ° C
Visibility: greater than 10.8 NM
Dewpoint 22.6 ° C
Water temperature 22.0 ° C

Date/timePositionNaut miles runAvg speedWind from/ knotsBaromVisibWave heightAir tempDewpointWater temp
2014-Aug-30 00:00N 33°48' W 028°18'37315.6 170 / 61028.010.8 0.527.022.622.0
2014-Aug-29 00:00N 35°00' W 020°54'9415.7 090 / 81027.010.8 0.526.019.921.0
2014-Aug-28 18:00N 35°12' W 019°00'18617.0 100 / 41028.010.8 1.029.021.625.0
2014-Aug-28 07:00N 35°24' W 015°12'11316.1 040 / 101023.010.8 2.022.018.920.0
2014-Aug-28 00:00N 35°30' W 012°54'17815.5 020 / 141023.010.8 1.025.022.020.0
2014-Aug-27 12:33N 35°49' W 009°17'36815.2
2014-Aug-26 12:18N 36°44' W 001°45'1315.6
2014-Aug-26 11:27N 36°53' W 001°33'1516.2
2014-Aug-26 10:33N 37°02' W 001°19'3216.1
2014-Aug-26 08:32N 37°24' W 000°48'1616.1
2014-Aug-26 07:33N 37°34' W 000°33'1615.7
2014-Aug-26 06:32N 37°48' W 000°22'1615.9
2014-Aug-26 05:33N 38°01' W 000°12'1615.8
2014-Aug-26 04:33N 38°14' W 000°01'1615.7
2014-Aug-26 03:33N 38°27' E 000°10'1715.4
2014-Aug-26 02:26N 38°42' E 000°21'5514.1
2014-Aug-25 22:34N 39°27' W 000°19'0 0.0
2014-Aug-25 21:33N 39°27' W 000°19'0 0.0
2014-Aug-25 20:33N 39°27' W 000°19'0 0.0
2014-Aug-25 19:33N 39°27' W 000°19'0 0.0
2014-Aug-25 18:33N 39°27' W 000°19'0 0.0
2014-Aug-25 17:33N 39°27' W 000°19'0 0.0
2014-Aug-25 16:33N 39°27' W 000°19'0 0.0
2014-Aug-25 15:33N 39°27' W 000°19'0 0.0
2014-Aug-25 14:33N 39°27' W 000°19'0 0.0
2014-Aug-25 13:33N 39°27' W 000°19'0 0.0
2014-Aug-25 12:33N 39°27' W 000°19'0 0.0
2014-Aug-25 11:33N 39°27' W 000°19'0 0.0
2014-Aug-25 10:33N 39°27' W 000°19'0 0.0
2014-Aug-25 09:33N 39°27' W 000°19'0 0.0
2014-Aug-25 08:33N 39°27' W 000°19'5 5.3
2014-Aug-25 07:33N 39°25' W 000°12'7111.8
2014-Aug-25 01:33N 39°53' E 001°12'1212.4
2014-Aug-25 00:33N 40°04' E 001°19'1212.4
2014-Aug-24 23:33N 40°15' E 001°27'1212.4
2014-Aug-24 22:33N 40°25' E 001°35'1212.4
2014-Aug-24 21:33N 40°36' E 001°42'1312.8
2014-Aug-24 20:33N 40°48' E 001°50'1312.8
2014-Aug-24 19:33N 40°59' E 001°58'1312.6
2014-Aug-24 18:33N 41°11' E 002°06'10 0.9
2014-Aug-24 08:06N 41°16' E 002°16'712.3
2014-Aug-24 07:32N 41°17' E 002°25'1211.8
2014-Aug-24 06:33N 41°22' E 002°39'1412.6
2014-Aug-24 05:25N 41°30' E 002°55'4 4.7
2014-Aug-24 04:29N 41°28' E 002°50'1311.7
2014-Aug-24 03:22N 41°36' E 003°03'2211.9
2014-Aug-24 01:28N 41°50' E 003°28'1212.6
2014-Aug-24 00:30N 41°58' E 003°39'1313.4
2014-Aug-23 23:33N 42°09' E 003°49'1313.5
2014-Aug-23 22:33N 42°19' E 004°01'1413.1
2014-Aug-23 21:29N 42°30' E 004°13'2612.9
2014-Aug-23 19:29N 42°49' E 004°36'37 2.3
2014-Aug-23 03:31N 43°25' E 004°51'0 0.0
2014-Aug-23 02:31N 43°25' E 004°51'0 0.0
2014-Aug-23 01:31N 43°25' E 004°51'4 4.6
2014-Aug-23 00:33N 43°22' E 004°56'1 0.6
2014-Aug-22 23:32N 43°22' E 004°56'0 0.0
2014-Aug-22 22:29N 43°22' E 004°56'0 0.0
2014-Aug-22 21:32N 43°22' E 004°56'0 0.0
2014-Aug-22 20:32N 43°22' E 004°56'0 0.0
2014-Aug-22 19:29N 43°22' E 004°56'0 0.0
2014-Aug-22 18:32N 43°22' E 004°56'0 0.0
2014-Aug-22 17:32N 43°22' E 004°56'0 0.0
2014-Aug-22 16:32N 43°22' E 004°56'0 0.0
2014-Aug-22 15:33N 43°22' E 004°56'0 0.0
2014-Aug-22 14:33N 43°22' E 004°56'0 0.0
2014-Aug-22 13:33N 43°22' E 004°56'0 0.0
2014-Aug-22 12:33N 43°22' E 004°56'0 0.0
2014-Aug-22 11:33N 43°22' E 004°56'0 0.0
2014-Aug-22 10:33N 43°22' E 004°56'0 0.0
2014-Aug-22 09:33N 43°22' E 004°56'0 0.0
2014-Aug-22 08:33N 43°22' E 004°56'0 0.0
2014-Aug-22 07:33N 43°22' E 004°56'0 0.1
2014-Aug-22 06:33N 43°22' E 004°56'9 9.3
2014-Aug-22 05:33N 43°13' E 005°02'1311.9
2014-Aug-22 04:30N 43°04' E 005°14'1212.5
2014-Aug-22 03:33N 42°59' E 005°28'1212.5
2014-Aug-22 02:33N 42°55' E 005°44'1212.4
2014-Aug-22 01:33N 42°50' E 006°00'1312.6
2014-Aug-22 00:33N 42°50' E 006°17'1312.5
2014-Aug-21 23:33N 42°52' E 006°34'1313.0
2014-Aug-21 22:33N 42°60' E 006°48'1312.8
2014-Aug-21 21:33N 43°07' E 007°03'1212.2
2014-Aug-21 20:33N 43°14' E 007°16'2612.5
2014-Aug-21 18:27N 43°30' E 007°46'4912.4
2014-Aug-21 14:30N 44°05' E 008°32'1313.5
2014-Aug-21 13:33N 44°16' E 008°41'10 9.8
2014-Aug-21 12:33N 44°25' E 008°47'0 0.0
2014-Aug-21 05:18N 44°25' E 008°47'0 0.0
2014-Aug-20 20:18N 44°25' E 008°47'0 0.0
2014-Aug-20 16:21N 44°25' E 008°47'0 0.0
2014-Aug-20 15:27N 44°25' E 008°47'1 0.8
2014-Aug-20 14:32N 44°25' E 008°46'6 6.5
2014-Aug-20 13:33N 44°19' E 008°46'1413.7
2014-Aug-20 12:33N 44°09' E 008°59'1514.7
2014-Aug-20 11:34N 43°58' E 009°12'1514.9
2014-Aug-20 10:33N 43°47' E 009°26'1414.4
2014-Aug-20 09:34N 43°39' E 009°43'1413.9
2014-Aug-20 08:33N 43°31' E 009°59'1313.2
2014-Aug-20 07:33N 43°32' E 010°17'2 2.2
2014-Aug-20 06:32N 43°35' E 010°18'0 0.0
2014-Aug-20 05:32N 43°35' E 010°18'0 0.0
2014-Aug-20 04:32N 43°35' E 010°18'0 0.0
2014-Aug-20 03:32N 43°35' E 010°18'0 0.0
2014-Aug-20 02:32N 43°35' E 010°18'0 0.0
2014-Aug-20 01:32N 43°35' E 010°18'0 0.0
2014-Aug-20 00:32N 43°35' E 010°18'  

Dump ship's entire track history